[[{"header":{"parameterUnit":"m.s-1","parameterCategory":1,"la1":30.2991,"la2":30.254,"lo1":-89.0895,"lo2":-89.0444,"dy":0.0017,"dx":0.0017,"nx":28,"ny":28,"refTime":"2024-04-22T03:00:00:Z","depth":0,"parameterNumber":2,"parameterNumberName":"U-component_of_WINDS"},"data":[0,0,0,0,0,0,0,0,0,0,0,0,0,0,0,0,0,0,0,0,0,0,0,0,0,0,0,0,0,0,0,0,0,0,0,0,0,0,0,0,0,0,0,0,0,0,0,0,0,0,0,0,0,0,0,0,0,0,-3.3492,-3.3492,0,-3.3518,-3.3518,-3.3519,-3.3403,-3.3399,-3.3396,-3.3393,-3.342,-3.3424,-3.3427,0,0,0,0,0,0,0,0,0,0,0,0,0,-3.3342,-3.3346,-3.3492,-3.3492,-3.3493,-3.3518,-3.3518,-3.3519,-3.3403,-3.3399,-3.3395,-3.3391,-3.3419,-3.3423,-3.3428,0,0,0,0,0,0,0,0,0,0,0,0,0,-3.3392,-3.3347,-3.3492,-3.3438,-3.3434,-3.3518,-3.3518,-3.3519,-3.3404,-3.3399,-3.3394,-3.3389,-3.3417,-3.3423,-3.3428,-3.3566,0,0,-3.3446,-3.3449,0,0,0,0,0,0,0,0,-3.3389,-3.3397,-3.3446,-3.3442,-3.3437,-3.3452,-3.3475,-3.3535,-3.3406,-3.3416,-3.3393,-3.3387,-3.3435,-3.3439,-3.3455,-3.3567,-3.3568,-3.3447,-3.345,-3.3453,-3.3454,0,0,0,0,0,0,0,-3.3386,-3.3396,-3.3502,-3.3447,-3.3441,-3.3413,-3.3414,-3.3486,-3.3453,-3.3414,-3.3406,-3.3411,-3.3431,-3.3449,-3.3454,-3.3568,-3.3446,-3.3452,-3.3455,-3.3457,-3.3793,-3.3798,0,0,0,0,0,0,-3.339,-3.3394,-3.3501,-3.3503,-3.34,-3.342,-3.3421,-3.3452,-3.3452,-3.3447,-3.3415,-3.3405,-3.3442,-3.3448,-3.3455,-3.3614,-3.3453,-3.3458,-3.3461,-3.3787,-3.3794,-3.38,0,0,0,0,0,0,-3.3387,-3.34,-3.35,-3.3446,-3.3457,-3.3428,-3.3464,-3.3456,-3.3473,-3.3453,-3.3446,-3.3439,-3.3438,-3.3447,-3.3538,-3.3613,-3.3461,-3.3466,-3.3781,-3.3789,-3.3797,-3.3934,0,0,0,0,0,0,-3.3383,-3.34,-3.3452,-3.3448,-3.346,-3.3584,-3.3468,-3.346,-3.3484,-3.3471,-3.3474,-3.3469,-3.3435,-3.353,-3.3544,-3.3618,-3.347,-3.3774,-3.3785,-3.3794,-3.3922,-3.3946,-3.3965,0,0,0,0,0,-3.3378,-3.349,-3.3455,-3.3469,-3.3524,-3.3589,-3.3595,-3.3553,-3.349,-3.3542,-3.3528,-3.3469,-3.3603,-3.3541,-3.3555,-3.3632,-3.3769,-3.3782,-3.3793,-3.3913,-3.3941,-3.3965,0,0,0,0,0,0,-3.3503,-3.3488,-3.345,-3.3564,-3.3578,-3.3569,-3.3633,-3.3585,-3.3618,-3.3604,-3.3551,-3.3553,-3.3653,-3.3652,-3.3583,-3.3764,-3.3675,-3.3691,-3.3761,-3.3788,-3.3809,-3.3806,-3.3475,0,0,0,0,0,-3.3544,-3.3598,-3.3582,-3.3684,-3.3693,-3.3662,-3.3689,-3.3655,-3.3668,-3.3674,-3.3667,-3.3682,-3.3726,-3.3757,-3.3798,-3.3923,-3.392,-3.3983,-3.4004,-3.4022,-3.4035,-3.4099,-3.4126,-3.384,-3.384,-3.384,0,0,-3.3629,-3.3628,-3.3665,-3.3709,-3.3716,-3.3772,-3.3668,-3.3732,-3.3773,-3.3683,-3.3768,-3.3765,-3.3778,-3.3886,-3.3933,-3.3888,-3.4114,-3.4037,-3.4052,-3.4055,-3.4115,-3.4142,-3.4166,-3.3848,-3.3847,-3.3845,0,0,-3.3812,-3.3817,-3.3902,-3.3911,-3.3923,-3.3902,-3.3923,-3.3921,-3.3914,-3.3999,-3.3933,-3.3981,-3.406,-3.4072,-3.4088,-3.4276,-3.4222,-3.4291,-3.4402,-3.4465,-3.4487,-3.4507,-3.4572,-3.4596,-3.4305,-3.4305,-3.4305,0,-3.3916,-3.3997,-3.3951,-3.402,-3.404,-3.3962,-3.4047,-3.4058,-3.4084,-3.41,-3.4049,-3.4146,-3.415,-3.4258,-3.4304,-3.4321,-3.4342,-3.4289,-3.4488,-3.4507,-3.4525,-3.4586,-3.4611,-3.4313,-3.4312,-3.4311,-3.431,0,-3.4123,-3.4181,-3.4248,-3.4274,-3.4303,-3.4379,-3.4344,-3.4379,-3.4343,-3.4327,-3.4414,-3.4416,-3.4455,-3.4479,-3.4445,-3.4583,-3.4554,-3.4497,-3.4406,-3.4561,-3.4617,-3.4641,-3.4325,-3.4322,-3.4319,-3.4317,0,0,-3.4384,-3.4383,-3.4408,-3.4418,-3.4427,-3.447,-3.4543,-3.4581,-3.4611,-3.4631,-3.469,-3.4759,-3.4706,-3.4724,-3.4691,-3.4747,-3.4893,-3.4682,-3.4682,-3.4719,-3.5043,-3.5084,-3.5112,-3.4858,-3.4863,-3.4866,-3.5041,0,-3.4561,-3.4684,-3.4645,-3.477,-3.4822,-3.4749,-3.4812,-3.4823,-3.4811,-3.4853,-3.4839,-3.4888,-3.4815,-3.4825,-3.4878,-3.4864,-3.4957,-3.4852,-3.4911,-3.4914,-3.4907,-3.5142,-3.5185,-3.535,-3.5063,-3.5067,-3.5069,0,-3.4783,-3.4812,-3.4942,-3.494,-3.496,-3.5018,-3.5048,-3.509,-3.5102,-3.5089,-3.511,-3.5065,-3.5136,-3.5047,-3.5143,-3.5072,-3.5094,-3.5092,-3.5097,-3.5099,-3.4999,-3.5147,-3.5402,-3.5426,-3.5104,-3.5101,-3.5099,0,-3.4957,-3.5029,-3.5115,-3.5126,-3.5127,-3.5169,-3.5171,-3.5178,-3.5203,-3.523,-3.5245,-3.5281,-3.53,-3.5329,-3.5295,-3.5233,-3.5395,-3.5304,-3.5385,-3.5386,-3.542,-3.5418,-3.5679,-3.544,-3.5439,-3.5439,-3.5438,0,-3.5157,-3.5239,-3.5193,-3.5246,-3.5335,-3.529,-3.5379,-3.5373,-3.538,-3.543,-3.537,-3.5418,-3.5371,-3.5415,-3.5389,-3.5472,-3.5481,-3.5472,-3.5463,-3.5476,-3.5477,-3.5487,-3.5474,-3.5445,-3.5444,-3.5443,-3.5441,0,-3.5366,-3.5338,-3.5427,-3.5421,-3.5421,-3.5487,-3.5481,-3.5529,-3.5513,-3.5577,-3.5589,-3.5563,-3.5612,-3.5581,-3.5631,-3.5613,-3.572,-3.5697,-3.5716,-3.5709,-3.5791,-3.5782,-3.6066,-3.61,-3.5841,-3.5844,-3.5846,0,-3.5494,-3.5554,-3.5555,-3.5584,-3.559,-3.5638,-3.5663,-3.5621,-3.5649,-3.5667,-3.5713,-3.5757,-3.5789,-3.587,-3.5855,-3.5893,-3.5869,-3.5966,-3.5874,-3.5884,-3.5867,-3.5863,-3.5868,-3.5983,-3.5986,-3.5989,-3.5991,0,-3.5723,-3.5706,-3.5744,-3.5778,-3.581,-3.5834,-3.5854,-3.5881,-3.5839,-3.5874,-3.5923,-3.5948,-3.5998,-3.6042,-3.6073,-3.6075,-3.6026,-3.602,-3.6041,-3.6052,-3.6059,-3.6054,-3.5763,-3.6013,-3.6011,-3.6009,-3.6008,-3.6007,-3.5893,-3.5943,-3.5951,-3.5995,-3.6005,-3.6025,-3.607,-3.6059,-3.6099,-3.6136,-3.6109,-3.6167,-3.6176,-3.6213,-3.6222,-3.6266,-3.6226,-3.6256,-3.6263,-3.6271,-3.6281,-3.6055,-3.6272,-3.6271,-3.627,-3.627,-3.6269,0,-3.6117,-3.6118,-3.616,-3.6189,-3.6224,-3.6175,-3.6194,-3.6226,-3.6278,-3.6291,-3.6324,-3.638,-3.6421,-3.6411,-3.6448,-3.6485,-3.6464,-3.6496,-3.6492,-3.6493,-3.6315,-3.6293,-3.6513,-3.6513,-3.6513,-3.6513,-3.6513,-3.6513,-3.6237,-3.6318,-3.6303,-3.6389,-3.639,-3.6445,-3.646,-3.6478,-3.6488,-3.6553,-3.6587,-3.658,-3.6583,-3.662,-3.6656,-3.6652,-3.6667,-3.6708,-3.6695,-3.6529,-3.6505,-3.6482,-3.646,-3.6712,-3.6713,-3.6868,-3.687,-3.6871]},{"header":{"parameterUnit":"m.s-1","parameterCategory":1,"la1":30.2991,"la2":30.254,"lo1":-89.0895,"lo2":-89.0444,"dy":0.0017,"dx":0.0017,"nx":28,"ny":28,"refTime":"2024-04-22T03:00:00:Z","depth":0,"parameterNumber":3,"parameterNumberName":"V-component_of_WINDS"},"data":[0,0,0,0,0,0,0,0,0,0,0,0,0,0,0,0,0,0,0,0,0,0,0,0,0,0,0,0,0,0,0,0,0,0,0,0,0,0,0,0,0,0,0,0,0,0,0,0,0,0,0,0,0,0,0,0,0,0,-0.2875,-0.2876,0,-0.2919,-0.292,-0.292,-0.302,-0.3022,-0.3024,-0.3026,-0.3067,-0.3066,-0.3065,0,0,0,0,0,0,0,0,0,0,0,0,0,-0.2874,-0.2873,-0.2875,-0.2876,-0.2877,-0.2919,-0.292,-0.292,-0.3019,-0.3022,-0.3024,-0.3027,-0.3067,-0.3066,-0.3065,0,0,0,0,0,0,0,0,0,0,0,0,0,-0.2891,-0.2873,-0.2875,-0.2931,-0.2937,-0.2919,-0.292,-0.292,-0.3019,-0.3022,-0.3025,-0.3028,-0.3067,-0.3066,-0.3065,-0.2995,0,0,-0.3061,-0.3061,0,0,0,0,0,0,0,0,-0.289,-0.2891,-0.2922,-0.2927,-0.2933,-0.2967,-0.2934,-0.2945,-0.3018,-0.2988,-0.3026,-0.303,-0.3031,-0.3033,-0.3034,-0.2997,-0.2999,-0.3061,-0.306,-0.306,-0.3059,0,0,0,0,0,0,0,-0.2889,-0.289,-0.2893,-0.2923,-0.2929,-0.2953,-0.2959,-0.2937,-0.2991,-0.299,-0.2998,-0.3002,-0.3034,-0.3035,-0.3036,-0.3,-0.3061,-0.306,-0.3059,-0.3059,-0.2906,-0.2903,0,0,0,0,0,0,-0.288,-0.2888,-0.2891,-0.2894,-0.2919,-0.295,-0.2957,-0.2953,-0.2992,-0.3001,-0.2999,-0.3006,-0.3036,-0.3037,-0.3038,-0.2958,-0.306,-0.3059,-0.3058,-0.2909,-0.2905,-0.2902,0,0,0,0,0,0,-0.288,-0.288,-0.289,-0.2893,-0.2896,-0.2947,-0.2942,-0.2952,-0.2953,-0.2998,-0.3008,-0.299,-0.3038,-0.3039,-0.3005,-0.296,-0.3058,-0.3057,-0.2913,-0.2908,-0.2903,-0.2797,0,0,0,0,0,0,-0.2879,-0.2879,-0.2854,-0.2892,-0.2896,-0.2857,-0.2939,-0.2951,-0.2951,-0.2961,-0.2992,-0.3001,-0.3041,-0.3006,-0.3004,-0.2961,-0.3056,-0.2917,-0.2911,-0.2905,-0.2805,-0.2789,-0.2776,0,0,0,0,0,-0.2879,-0.2822,-0.2852,-0.2852,-0.2866,-0.2854,-0.2856,-0.2905,-0.2947,-0.2922,-0.2951,-0.3,-0.2966,-0.3002,-0.3,-0.2956,-0.292,-0.2913,-0.2905,-0.2812,-0.2792,-0.2776,0,0,0,0,0,0,-0.2776,-0.2828,-0.2862,-0.2816,-0.283,-0.2871,-0.2841,-0.2883,-0.2885,-0.2894,-0.2953,-0.2959,-0.2916,-0.2933,-0.2972,-0.2889,-0.2951,-0.2943,-0.288,-0.2862,-0.2848,-0.2845,-0.3055,0,0,0,0,0,-0.2748,-0.2736,-0.2781,-0.2736,-0.2741,-0.2789,-0.2786,-0.2822,-0.2839,-0.2845,-0.2872,-0.2885,-0.2877,-0.2871,-0.2867,-0.2808,-0.2815,-0.2776,-0.2762,-0.275,-0.2742,-0.271,-0.2693,-0.2877,-0.2877,-0.2877,0,0,-0.269,-0.2717,-0.2705,-0.2716,-0.2731,-0.2715,-0.2794,-0.2774,-0.2763,-0.2842,-0.2811,-0.2831,-0.2849,-0.2802,-0.2783,-0.2814,-0.2692,-0.274,-0.273,-0.2729,-0.2701,-0.2683,-0.2668,-0.2872,-0.2873,-0.2874,0,0,-0.2576,-0.2595,-0.256,-0.2573,-0.2596,-0.2628,-0.2619,-0.2654,-0.267,-0.264,-0.2699,-0.2685,-0.2672,-0.2682,-0.2685,-0.2574,-0.2618,-0.2571,-0.2494,-0.2463,-0.2449,-0.2436,-0.2395,-0.238,-0.2563,-0.2562,-0.2562,0,-0.25,-0.2481,-0.2535,-0.2512,-0.2514,-0.2586,-0.2549,-0.2559,-0.2578,-0.2577,-0.2613,-0.2596,-0.2614,-0.257,-0.2542,-0.2543,-0.2533,-0.2567,-0.2447,-0.2435,-0.2424,-0.2385,-0.237,-0.2556,-0.2557,-0.2558,-0.2558,0,-0.2386,-0.2371,-0.2339,-0.2357,-0.2356,-0.2325,-0.2373,-0.2365,-0.2401,-0.2429,-0.2397,-0.242,-0.2421,-0.2414,-0.2448,-0.2374,-0.2393,-0.2436,-0.2499,-0.2399,-0.2364,-0.235,-0.2548,-0.255,-0.2552,-0.2553,0,0,-0.2209,-0.2257,-0.2244,-0.2252,-0.2282,-0.2271,-0.2243,-0.2245,-0.2236,-0.2246,-0.2223,-0.221,-0.225,-0.2254,-0.229,-0.2263,-0.2171,-0.2311,-0.2312,-0.2283,-0.2089,-0.2055,-0.2037,-0.2201,-0.2199,-0.2197,-0.2087,0,-0.2101,-0.2058,-0.2105,-0.2051,-0.2037,-0.2105,-0.208,-0.2095,-0.212,-0.211,-0.2138,-0.2126,-0.2182,-0.2184,-0.216,-0.2188,-0.2133,-0.2196,-0.2179,-0.2178,-0.2171,-0.2019,-0.1983,-0.1878,-0.2074,-0.2071,-0.207,0,-0.197,-0.1975,-0.1919,-0.1952,-0.1947,-0.1925,-0.193,-0.1921,-0.1938,-0.1958,-0.1961,-0.2005,-0.1979,-0.204,-0.2003,-0.2045,-0.2041,-0.2053,-0.205,-0.2049,-0.2117,-0.2013,-0.1846,-0.183,-0.2049,-0.205,-0.2052,0,-0.1844,-0.1837,-0.1803,-0.1808,-0.1845,-0.1827,-0.1842,-0.1862,-0.186,-0.1864,-0.1863,-0.1863,-0.1862,-0.1861,-0.1903,-0.1944,-0.186,-0.1925,-0.1874,-0.1873,-0.1853,-0.1853,-0.1682,-0.1851,-0.1851,-0.1852,-0.1852,0,-0.1718,-0.1682,-0.1747,-0.1726,-0.1686,-0.174,-0.1699,-0.172,-0.1737,-0.172,-0.1778,-0.1761,-0.1818,-0.1806,-0.1838,-0.1802,-0.1801,-0.1815,-0.1824,-0.181,-0.1808,-0.1807,-0.1815,-0.1848,-0.1848,-0.1849,-0.185,0,-0.1572,-0.1614,-0.1581,-0.1619,-0.1627,-0.1596,-0.1628,-0.1609,-0.1638,-0.1615,-0.1613,-0.1657,-0.1646,-0.1688,-0.1683,-0.1705,-0.1651,-0.1672,-0.1645,-0.1651,-0.1597,-0.1601,-0.1419,-0.1397,-0.158,-0.1579,-0.1577,0,-0.1488,-0.1462,-0.1496,-0.149,-0.1501,-0.149,-0.1488,-0.154,-0.1535,-0.1552,-0.153,-0.1524,-0.1522,-0.15,-0.153,-0.1527,-0.1548,-0.1484,-0.1548,-0.1533,-0.1546,-0.1546,-0.1543,-0.147,-0.1468,-0.1466,-0.1465,0,-0.1335,-0.1358,-0.1354,-0.1356,-0.1352,-0.1356,-0.1364,-0.1355,-0.1411,-0.1402,-0.1392,-0.139,-0.1385,-0.1377,-0.138,-0.1393,-0.1437,-0.1445,-0.1433,-0.1417,-0.1402,-0.1408,-0.1608,-0.1449,-0.145,-0.1451,-0.1452,-0.1453,-0.1217,-0.1196,-0.1217,-0.121,-0.1222,-0.1228,-0.1211,-0.1238,-0.1231,-0.1232,-0.1263,-0.1245,-0.1262,-0.127,-0.1279,-0.1265,-0.1295,-0.1277,-0.1273,-0.1267,-0.1258,-0.1405,-0.1266,-0.1266,-0.1267,-0.1267,-0.1268,0,-0.1067,-0.1084,-0.1076,-0.1086,-0.108,-0.1123,-0.1134,-0.1125,-0.111,-0.1122,-0.1119,-0.1106,-0.1098,-0.1128,-0.1125,-0.1108,-0.1128,-0.1105,-0.1106,-0.1108,-0.1232,-0.1243,-0.1089,-0.1089,-0.1089,-0.1089,-0.1089,-0.1089,-0.0988,-0.0954,-0.0978,-0.095,-0.0967,-0.0952,-0.0954,-0.0959,-0.0969,-0.0952,-0.0947,-0.0967,-0.0986,-0.0984,-0.0978,-0.0987,-0.0982,-0.0952,-0.0967,-0.1082,-0.11,-0.1116,-0.1126,-0.0951,-0.0951,-0.0845,-0.0844,-0.0843]}]]